Nashua, NH

12:46 PM EDT on October 14, 2019 (GMT -0400)
Boire

Weather History for KASH - May, 2019

Change the Weather History Date:

Wednesday, May 22, 2019

  Actual Average Record
Temperature  
Mean Temperature 61 °F -  
Max Temperature 71 °F 74 °F 93 °F (1992)
Min Temperature 52 °F 46 °F 28 °F (1950)
Degree Days  
Heating Degree Days 4    
Growing Degree Days 11 (Base 50)    
Moisture  
Dew Point 36 °F    
Average Humidity 42    
Maximum Humidity 69    
Minimum Humidity 25    
Precipitation  
Precipitation 0.00 in - - ()
Sea Level Pressure  
Sea Level Pressure 30.19 in    
Wind  
Wind Speed 11 mph ()    
Max Wind Speed 20 mph    
Max Gust Speed 32 mph    
Visibility 10.0 miles    
Events      
Averages and records for this station are not official NWS values.
T = Trace of Precipitation, MM = Missing Value Source: Averaged Metar Reports

Daily Weather History Graph

Daily Weather History Graph

Search for Another Location

Airport or City:

Astronomy

May. 22, 2019 Rise Set
Actual Time 5:17 AM EDT 8:08 PM EDT
Civil Twilight 4:43 AM EDT 8:42 PM EDT
Nautical Twilight 4:01 AM EDT 9:24 PM EDT
Astronomical Twilight 3:13 AM EDT 10:13 PM EDT
Moon 11:51 PM EDT (5/22) 8:21 AM EDT (5/22)
Length of Visible Light 15h 58m
Length of Day
14h 51m
Waning Gibbous, 85% of the Moon is Illuminated
May 22
Waning Gibbous
May 26
Last Quarter
Jun 3
New
Jun 10
First Quarter
Jun 17
Full

Hourly Weather History & Observations

Time (EDT) Temp. Dew Point Humidity Pressure Visibility Wind Dir Wind Speed Gust Speed Precip Events Conditions
12:56 AM 55.9 °F 36.0 °F 47% 30.03 in 10.0 mi NW 15.0 mph 20.7 mph N/A   Clear
1:56 AM 55.0 °F 36.0 °F 49% 30.04 in 10.0 mi NW 12.7 mph - N/A   Clear
2:56 AM 54.0 °F 37.0 °F 53% 30.07 in 10.0 mi NW 10.4 mph - N/A   Clear
3:56 AM 53.1 °F 37.0 °F 55% 30.08 in 10.0 mi NW 13.8 mph - N/A   Clear
5:56 AM 52.0 °F 37.9 °F 59% 30.14 in 10.0 mi NNW 10.4 mph - N/A   Clear
6:56 AM 53.1 °F 37.0 °F 55% 30.18 in 10.0 mi NNW 15.0 mph 26.5 mph N/A   Partly Cloudy
7:56 AM 55.0 °F 37.0 °F 51% 30.19 in 10.0 mi NNW 19.6 mph 32.2 mph N/A   Partly Cloudy
8:56 AM 57.0 °F 35.1 °F 44% 30.21 in 10.0 mi NNW 12.7 mph - N/A   Partly Cloudy
9:56 AM 59.0 °F 34.0 °F 39% 30.22 in 10.0 mi NW 19.6 mph - N/A   Clear
10:56 AM 61.0 °F 34.0 °F 36% 30.22 in 10.0 mi NW 17.3 mph 21.9 mph N/A   Clear
11:56 AM 64.0 °F 34.0 °F 33% 30.22 in 10.0 mi NW 13.8 mph 20.7 mph N/A   Partly Cloudy
12:56 PM 66.9 °F 34.0 °F 30% 30.21 in 10.0 mi WNW 18.4 mph 24.2 mph N/A   Clear
1:56 PM 69.1 °F 35.1 °F 29% 30.20 in 10.0 mi NNW 17.3 mph 23.0 mph N/A   Clear
2:56 PM 69.1 °F 32.0 °F 25% 30.22 in 10.0 mi North 11.5 mph 24.2 mph N/A   Clear
3:56 PM 69.1 °F 32.0 °F 25% 30.21 in 10.0 mi North 9.2 mph - N/A   Clear
4:56 PM 70.0 °F 33.1 °F 26% 30.21 in 10.0 mi North 8.1 mph - N/A   Clear
5:56 PM 70.0 °F 32.0 °F 25% 30.22 in 10.0 mi North 5.8 mph - N/A   Clear
6:56 PM 69.1 °F 33.1 °F 26% 30.23 in 10.0 mi Variable 3.5 mph - N/A   Clear
7:56 PM 63.0 °F 39.0 °F 41% 30.26 in 10.0 mi SE 5.8 mph - N/A   Clear
8:56 PM 57.9 °F 36.0 °F 44% 30.27 in 10.0 mi SE 6.9 mph - N/A   Clear
9:56 PM 57.0 °F 37.0 °F 47% 30.27 in 10.0 mi SE 4.6 mph - N/A   Clear
10:56 PM 55.9 °F 39.9 °F 55% 30.27 in 10.0 mi Variable 3.5 mph - N/A   Clear
11:56 PM 54.0 °F 44.1 °F 69% 30.28 in 10.0 mi SE 4.6 mph - N/A   Clear